NOAA 16 DEB, 41218

Orbit data source: Space-Track

NOAA 16 DEB, 41218 is space debris in SSO originally from a launch on Thu, 21 Sep 2000 UTC launched from the Air Force Western Test Range (AFWTR). Debris objects in space refer to the collection of defunct objects orbiting the Earth. Examples of debris include non-operational satellites, rocket bodies, and fragments generated from explosions, collisions, or faulty payload assembly.

Loading next visibility...
Identifier
41218, 2000-055DX
Orbit
SSO
Country
Flag of USUS
Related business
Manufacturer
Unknown
Mission
Spacecraft
Bus & Motor
Unknown
Mass
Unknown
Launch date (UTC)
2000-09-21 (26 years ago)
Launch vehicle
Unknown
Launch site
Air Force Western Test Range (AFWTR)
Object type
Payload
Rocket body
Debris
Shape & HBR
Unknown shape, 0.1 m
Radar Cross Section
Medium (>0.1 m² and <1 m²)

Expand to show TLE details & history
Last TLE update: 16 hours ago

TLE from 16 hours ago
0 NOAA 16 DEB
1 41218U 00055DX  26254.28846451  .00005166  00000-0  14131-2 0  9993
2 41218  98.7933  14.3631 0033886  24.5831 335.6966 14.47324782557766
Epoch: 2026-09-11T06:55Z
TLE epoch observation values (Epoch: 2026-09-11T06:55:23.333Z)
Latitude
-0.00011°
Longitude
-79.79807°
Altitude
715.392 km
Speed
7.509 km/s
True Right ascension
00h 57m 27s
True Declination
0° 00' 00"
Sunlit
Object was in full shadow at epoch
Visualization orbit readout
Latitude
Unknown
Longitude
Unknown
Altitude
Unknown
Speed
Unknown
Apparent Right ascension
Unknown
Apparent Declination
Unknown
Sunlit
N/A
Visualization observer readout
Local Sidereal Time
15:20:38
Azimuth
Unknown
Elevation
Unknown
Doppler factor
Unknown
Orbital elements
Apogee altitude
755.618 km
Perigee altitude
707.434 km
Semi-major axis
7,109.663 km
Eccentricity
0.00339
Inclination
98.7933°
RAAN
14.3631°
Arg. of periapsis
24.5831°
True anomaly
335.53617°
Mean anomaly
335.6966°
Eccentric anomaly
335.61645°
Mean motion
3.62051 °/min
Orbital period
99.43 mins
BSTAR
0.0014131
Loading maneuver chart data...
Computing Atmospheric mass density...
Loading historical data...
Loading historical data...
Loading historical data...
Loading historical data...
Loading historical data...
Loading historical data...
Loading historical data...

Documentation

Showing up to 5 results
|